Flag for Germany Weather past 2 weeks in Dachau, Bavaria, Germany

Now
48 °F

Sprinkles. Partly cloudy.


Feels Like: 42 °F
Forecast: 46 / 49 °F
Wind: 18 mph from Southwest

Location: Oberpfaffenhofen

Current Time: Dec 18, 2014 at 6:32:28 PM

Latest Report: Dec 18, 2014 at 5:50 PM


Visibility: 3 mi

Pressure: 30.07 "Hg

Humidity: 87%

Dew point: 45 °F

Location of DachauLocation

Historic Weather in Dachau — Graph

°F

Dachau temperature yesterday

Maximum temperature yesterday: 41 °F (at 1:50 PM)
Minimum temperature yesterday: 34 °F (at 7:20 AM)
Average temperature yesterday: 38 °F

Past Weeks' High & Low Weather Summary

 TemperatureHumidityPressure
High52 °F (Dec 13, 1:50 PM)100% (Dec 3, 4:20 PM)30.36 "Hg (Dec 3, 4:20 PM)
Low25 °F (Dec 10, 8:20 AM)41% (Dec 13, 1:50 PM)29.80 "Hg (Dec 12, 4:50 PM)
Average39 °F83%30.01 "Hg
* Reported Dec 3 4:20 PM — Dec 18 4:50 PM, Dachau, Weather by CustomWeather, © 2014

Note: Actual official high and low records may vary slightly from our data, if they occured in-between our weather recording intervals... More about our weather records

Advertising

Dachau weather history for previous 24 hours

 ConditionsComfort  
Time TempWeatherWind HumidityBarometerVisibility
4:50 PM
Dec 18
48 °FLight rain. Passing clouds.17 mph87%30.07 "Hg4 mi
4:20 PM48 °FLight rain. Partly sunny.16 mph87%30.04 "Hg2 mi
3:50 PM48 °FDrizzle. Overcast.17 mph87%30.04 "Hg4 mi
3:20 PM48 °FLight rain. More clouds than sun.17 mph87%30.04 "Hg2 mi
2:50 PM48 °FLight rain. More clouds than sun.14 mph87%30.04 "Hg2 mi
2:20 PM48 °FDrizzle. More clouds than sun.14 mph87%30.04 "Hg2 mi
1:50 PM48 °FDrizzle. Fog.15 mph87%30.04 "Hg3 mi
1:20 PM48 °FLight rain. Partly sunny.17 mph87%30.04 "HgN/A
12:50 PM50 °FPartly sunny.16 mph76%30.01 "HgN/A
12:20 PM50 °FScattered clouds.15 mph76%30.01 "HgN/A
11:50 AM50 °FPartly sunny.14 mph71%30.04 "HgN/A
11:20 AM48 °FPartly sunny.10 mph76%30.04 "HgN/A
10:50 AM48 °FPartly sunny.8 mph76%30.04 "HgN/A
10:20 AM48 °FPartly sunny.10 mph76%30.04 "HgN/A
9:50 AM46 °FPartly sunny.10 mph76%30.04 "HgN/A
9:20 AM45 °FPartly sunny.10 mph87%30.04 "HgN/A
8:50 AM45 °FPartly sunny.12 mph81%30.04 "HgN/A
Weather by CustomWeather, © 2014

See weather overviewHow to use our weather pages